Time,TemperatureF,DewpointF,PressureIn,WindDirection,WindDirectionDegrees,WindSpeedMPH,WindSpeedGustMPH,Humidity,HourlyPrecipIn,Conditions,Clouds,dailyrainin,SoftwareType,DateUTC
2013-07-04 00:11:00,67.0,39.0,-100.00,SSW,195,17.0,21.0,35,-99.99,,,-99.99,,2013-07-04 06:11:00,
2013-07-04 00:43:00,66.0,39.0,-100.00,SSW,205,17.0,22.0,36,-99.99,,,-99.99,,2013-07-04 06:43:00,
2013-07-04 01:02:00,65.0,39.0,-100.00,SSW,205,16.0,24.0,37,-99.99,,,-99.99,,2013-07-04 07:02:00,
2013-07-04 01:43:00,64.0,39.0,-100.00,SSW,210,14.0,17.0,39,-99.99,,,-99.99,,2013-07-04 07:43:00,
2013-07-04 02:11:00,64.0,39.0,-100.00,SW,225,19.0,24.0,40,-99.99,,,-99.99,,2013-07-04 08:11:00,
2013-07-04 02:33:00,64.0,40.0,-100.00,SW,230,18.0,22.0,40,-99.99,,,-99.99,,2013-07-04 08:33:00,
2013-07-04 02:42:00,65.0,40.0,-100.00,WSW,240,19.0,22.0,40,-99.99,,,-99.99,,2013-07-04 08:42:00,
2013-07-04 02:52:00,65.0,40.0,-100.00,SW,230,15.0,22.0,39,-99.99,,,-99.99,,2013-07-04 08:52:00,
2013-07-04 03:02:00,65.0,40.0,-100.00,WSW,240,11.0,17.0,38,-99.99,,,-99.99,,2013-07-04 09:02:00,
2013-07-04 03:42:00,66.0,39.0,-100.00,West,275,4.0,6.0,36,-99.99,,,-99.99,,2013-07-04 09:42:00,
2013-07-04 04:11:00,61.0,37.0,-100.00,WSW,250,4.0,7.0,41,-99.99,,,-99.99,,2013-07-04 10:11:00,
2013-07-04 04:33:00,64.0,38.0,-100.00,WNW,285,4.0,5.0,37,-99.99,,,-99.99,,2013-07-04 10:33:00,
2013-07-04 04:42:00,64.0,38.0,-100.00,WNW,295,3.0,6.0,37,-99.99,,,-99.99,,2013-07-04 10:42:00,
2013-07-04 05:11:00,56.0,36.0,-100.00,East,100,4.0,7.0,46,-99.99,,,-99.99,,2013-07-04 11:11:00,
2013-07-04 05:33:00,57.0,37.0,-100.00,ESE,105,3.0,5.0,47,-99.99,,,-99.99,,2013-07-04 11:33:00,
2013-07-04 05:43:00,59.0,38.0,-100.00,SE,140,2.0,4.0,46,-99.99,,,-99.99,,2013-07-04 11:43:00,
2013-07-04 06:11:00,60.0,38.0,-100.00,West,280,3.0,9.0,43,-99.99,,,-99.99,,2013-07-04 12:11:00,
2013-07-04 06:43:00,66.0,39.0,-100.00,West,265,1.0,4.0,36,-99.99,,,-99.99,,2013-07-04 12:43:00,
2013-07-04 07:12:00,62.0,38.0,-100.00,ESE,115,4.0,5.0,41,-99.99,,,-99.99,,2013-07-04 13:12:00,
2013-07-04 07:43:00,62.0,39.0,-100.00,East,85,4.0,6.0,42,-99.99,,,-99.99,,2013-07-04 13:43:00,
2013-07-04 08:02:00,68.0,41.0,-100.00,East,95,4.0,6.0,38,-99.99,,,-99.99,,2013-07-04 14:02:00,
2013-07-04 08:43:00,75.0,42.0,-100.00,SSE,165,2.0,3.0,31,-99.99,,,-99.99,,2013-07-04 14:43:00,
2013-07-04 09:23:00,78.0,41.0,-100.00,SW,225,1.0,4.0,26,-99.99,,,-99.99,,2013-07-04 15:23:00,
2013-07-04 09:33:00,79.0,41.0,-100.00,West,275,2.0,4.0,26,-99.99,,,-99.99,,2013-07-04 15:33:00,
2013-07-04 10:02:00,79.0,41.0,-100.00,NNE,25,3.0,6.0,25,-99.99,,,-99.99,,2013-07-04 16:02:00,
2013-07-04 10:11:00,82.0,42.0,-100.00,West,270,3.0,6.0,24,-99.99,,,-99.99,,2013-07-04 16:11:00,
2013-07-04 10:33:00,81.0,42.0,-100.00,NW,305,3.0,7.0,24,-99.99,,,-99.99,,2013-07-04 16:33:00,
2013-07-04 10:42:00,83.0,42.0,-100.00,WSW,245,2.0,7.0,24,-99.99,,,-99.99,,2013-07-04 16:42:00,
2013-07-04 10:52:00,83.0,42.0,-100.00,WNW,285,2.0,10.0,23,-99.99,,,-99.99,,2013-07-04 16:52:00,
2013-07-04 11:11:00,82.0,41.0,-100.00,North,355,4.0,7.0,24,-99.99,,,-99.99,,2013-07-04 17:11:00,
2013-07-04 11:22:00,81.0,41.0,-100.00,NE,50,2.0,9.0,24,-99.99,,,-99.99,,2013-07-04 17:22:00,
2013-07-04 11:53:00,85.0,42.0,-100.00,SW,225,6.0,10.0,22,-99.99,,,-99.99,,2013-07-04 17:53:00,
2013-07-04 12:11:00,86.0,41.0,-100.00,East,95,4.0,10.0,20,-99.99,,,-99.99,,2013-07-04 18:11:00,
2013-07-04 12:43:00,81.0,39.0,-100.00,North,0,2.0,12.0,21,-99.99,,,-99.99,,2013-07-04 18:43:00,
2013-07-04 13:12:00,82.0,39.0,-100.00,SE,135,6.0,7.0,21,-99.99,,,-99.99,,2013-07-04 19:12:00,
2013-07-04 13:22:00,82.0,40.0,-100.00,South,175,7.0,10.0,22,-99.99,,,-99.99,,2013-07-04 19:22:00,
2013-07-04 13:43:00,83.0,42.0,-100.00,SSW,200,21.0,27.0,23,-99.99,,,-99.99,,2013-07-04 19:43:00,
2013-07-04 14:01:00,79.0,39.0,-100.00,SSW,195,12.0,24.0,24,-99.99,,,-99.99,,2013-07-04 20:01:00,
2013-07-04 14:11:00,78.0,40.0,-100.00,SW,225,10.0,17.0,25,-99.99,,,-99.99,,2013-07-04 20:11:00,
2013-07-04 14:22:00,78.0,40.0,-100.00,SSW,210,7.0,12.0,26,-99.99,,,-99.99,,2013-07-04 20:22:00,
2013-07-04 14:33:00,79.0,40.0,-100.00,SW,215,7.0,11.0,25,-99.99,,,-99.99,,2013-07-04 20:33:00,
2013-07-04 14:42:00,81.0,40.0,-100.00,WSW,240,1.0,7.0,23,-99.99,,,-99.99,,2013-07-04 20:42:00,
2013-07-04 14:53:00,81.0,41.0,-100.00,SE,125,11.0,14.0,24,-99.99,,,-99.99,,2013-07-04 20:53:00,
2013-07-04 15:01:00,81.0,41.0,-100.00,SE,130,11.0,16.0,24,-99.99,,,-99.99,,2013-07-04 21:01:00,
2013-07-04 15:11:00,79.0,40.0,-100.00,SW,230,17.0,24.0,25,-99.99,,,-99.99,,2013-07-04 21:11:00,
2013-07-04 15:43:00,73.0,40.0,-100.00,SSW,195,16.0,27.0,29,-99.99,,,-99.99,,2013-07-04 21:43:00,
2013-07-04 16:01:00,77.0,40.0,-100.00,SSW,200,17.0,22.0,26,-99.99,,,-99.99,,2013-07-04 22:01:00,
2013-07-04 16:33:00,76.0,39.0,-100.00,South,170,24.0,32.0,26,-99.99,,,-99.99,,2013-07-04 22:33:00,
2013-07-04 16:43:00,77.0,39.0,-100.00,South,175,24.0,34.0,25,-99.99,,,-99.99,,2013-07-04 22:43:00,
2013-07-04 17:01:00,75.0,38.0,-100.00,SSE,150,14.0,22.0,26,-99.99,,,-99.99,,2013-07-04 23:01:00,
2013-07-04 17:33:00,69.0,41.0,-100.00,SE,130,9.0,17.0,36,-99.99,,,-99.99,,2013-07-04 23:33:00,
2013-07-04 17:42:00,69.0,44.0,-100.00,SE,135,11.0,12.0,41,-99.99,,,-99.99,,2013-07-04 23:42:00,
2013-07-04 17:52:00,68.0,44.0,-100.00,ESE,115,11.0,16.0,42,-99.99,,,-99.99,,2013-07-04 23:52:00,
2013-07-04 18:01:00,69.0,45.0,-100.00,ENE,75,11.0,12.0,42,-99.99,,,-99.99,,2013-07-05 00:01:00,
2013-07-04 18:11:00,69.0,44.0,-100.00,NE,55,9.0,12.0,40,-99.99,,,-99.99,,2013-07-05 00:11:00,
2013-07-04 18:43:00,63.0,46.0,-100.00,West,260,7.0,16.0,52,-99.99,,,-99.99,,2013-07-05 00:43:00,
2013-07-04 18:52:00,63.0,48.0,-100.00,SE,130,4.0,5.0,58,-99.99,,,-99.99,,2013-07-05 00:52:00,
2013-07-04 19:01:00,63.0,50.0,-100.00,SSE,160,7.0,9.0,62,-99.99,,,-99.99,,2013-07-05 01:01:00,
2013-07-04 19:11:00,63.0,51.0,-100.00,SSE,155,7.0,12.0,62,-99.99,,,-99.99,,2013-07-05 01:11:00,
2013-07-04 19:22:00,64.0,50.0,-100.00,SE,130,7.0,12.0,61,-99.99,,,-99.99,,2013-07-05 01:22:00,
2013-07-04 19:32:00,64.0,48.0,-100.00,ESE,115,9.0,11.0,55,-99.99,,,-99.99,,2013-07-05 01:32:00,
2013-07-04 19:42:00,64.0,49.0,-100.00,ESE,110,6.0,11.0,57,-99.99,,,-99.99,,2013-07-05 01:42:00,
2013-07-04 19:52:00,65.0,49.0,-100.00,ESE,120,9.0,12.0,56,-99.99,,,-99.99,,2013-07-05 01:52:00,
2013-07-04 20:02:00,63.0,49.0,-100.00,SSE,160,11.0,14.0,59,-99.99,,,-99.99,,2013-07-05 02:02:00,
2013-07-04 20:11:00,63.0,48.0,-100.00,SSE,165,10.0,15.0,57,-99.99,,,-99.99,,2013-07-05 02:11:00,
2013-07-04 20:21:00,63.0,48.0,-100.00,South,180,9.0,13.0,59,-99.99,,,-99.99,,2013-07-05 02:21:00,
2013-07-04 20:32:00,63.0,49.0,-100.00,SSW,210,7.0,12.0,60,-99.99,,,-99.99,,2013-07-05 02:32:00,
2013-07-04 20:42:00,62.0,50.0,-100.00,SSW,205,8.0,11.0,63,-99.99,,,-99.99,,2013-07-05 02:42:00,
2013-07-04 20:52:00,62.0,51.0,-100.00,South,190,7.0,11.0,66,-99.99,,,-99.99,,2013-07-05 02:52:00,
2013-07-04 21:02:00,62.0,51.0,-100.00,South,180,6.0,10.0,66,-99.99,,,-99.99,,2013-07-05 03:02:00,
2013-07-04 21:11:00,61.0,52.0,-100.00,SE,145,8.0,10.0,71,-99.99,,,-99.99,,2013-07-05 03:11:00,
2013-07-04 21:22:00,61.0,52.0,-100.00,South,170,9.0,11.0,73,-99.99,,,-99.99,,2013-07-05 03:22:00,
2013-07-04 21:32:00,60.0,52.0,-100.00,SSE,165,9.0,11.0,74,-99.99,,,-99.99,,2013-07-05 03:32:00,
2013-07-04 21:42:00,60.0,52.0,-100.00,South,180,8.0,11.0,73,-99.99,,,-99.99,,2013-07-05 03:42:00,
2013-07-04 21:51:00,60.0,52.0,-100.00,SSE,150,6.0,9.0,75,-99.99,,,-99.99,,2013-07-05 03:51:00,
2013-07-04 22:01:00,60.0,51.0,-100.00,SE,130,6.0,9.0,73,-99.99,,,-99.99,,2013-07-05 04:01:00,
2013-07-04 22:11:00,60.0,51.0,-100.00,ESE,120,1.0,8.0,71,-99.99,,,-99.99,,2013-07-05 04:11:00,
2013-07-04 22:22:00,60.0,51.0,-100.00,NNW,340,4.0,6.0,71,-99.99,,,-99.99,,2013-07-05 04:22:00,
2013-07-04 22:33:00,61.0,49.0,-100.00,South,175,2.0,4.0,64,-99.99,,,-99.99,,2013-07-05 04:33:00,
2013-07-04 22:43:00,60.0,49.0,-100.00,ESE,120,1.0,3.0,67,-99.99,,,-99.99,,2013-07-05 04:43:00,
2013-07-04 22:53:00,60.0,50.0,-100.00,East,95,6.0,6.0,70,-99.99,,,-99.99,,2013-07-05 04:53:00,
2013-07-04 23:01:00,60.0,51.0,-100.00,East,100,5.0,6.0,71,-99.99,,,-99.99,,2013-07-05 05:01:00,
2013-07-04 23:12:00,60.0,49.0,-100.00,ENE,65,6.0,6.0,67,-99.99,,,-99.99,,2013-07-05 05:12:00,
2013-07-04 23:21:00,60.0,51.0,-100.00,East,90,7.0,8.0,70,-99.99,,,-99.99,,2013-07-05 05:21:00,
2013-07-04 23:33:00,60.0,52.0,-100.00,NE,45,4.0,6.0,75,-99.99,,,-99.99,,2013-07-05 05:33:00,
2013-07-04 23:43:00,60.0,51.0,-100.00,ENE,60,6.0,6.0,74,-99.99,,,-99.99,,2013-07-05 05:43:00,
2013-07-04 23:52:00,60.0,48.0,-100.00,North,355,4.0,7.0,63,-99.99,,,-99.99,,2013-07-05 05:52:00,